Humidity-temperature Sensor

Selected Measurement Type: Relative Humidity

 
Relative Humidity [%]     6 entries per hour
Showing data from 10/17/2015 (00:00:00 Z) to 10/16/2015 (00:01:00 Z)
Previous Next [ Day | 3-Days | 7-Days ]
First Last
Prev [ Day | 3-Days | 7-Days ] Next
First Last

Start Time:     :
End Time:     :     
Time (in GMT) :00 :50 :40 :30 :20 :10
Previous Next [ Day | 3-Days | 7-Days ]
First Last
Prev [ Day | 3-Days | 7-Days ] Next
First Last


123 => good data
MM => data is determined as missing
-- => data not received/configured
Back to Top Back to Top
10/17/2015 00:00 to 23:10 74.73 74.01 74.99 75.49 75.25 74.71
10/16/2015 23:00 to 22:10 75.05 74.10 74.27 75.10 74.19 73.93
10/16/2015 22:00 to 21:10 73.84 74.23 73.43 76.74 76.14 76.72
10/16/2015 21:00 to 20:10 77.35 77.37 76.07 76.07 80.57 80.14
10/16/2015 20:00 to 19:10 80.38 80.77 79.38 80.03 78.67 78.95
10/16/2015 19:00 to 18:10 79.82 79.51 79.19 78.91 78.11 77.72
10/16/2015 18:00 to 17:10 76.27 75.83 76.48 77.22 77.24 77.13
10/16/2015 17:00 to 16:10 76.24 75.81 76.81 78.56 78.88 78.69
10/16/2015 16:00 to 15:10 77.93 79.36 77.98 77.98 78.11 78.88
10/16/2015 15:00 to 14:10 78.24 78.45 78.26 77.91 78.00 78.88
10/16/2015 14:00 to 13:10 78.67 77.78 76.72 76.66 77.65 77.72
10/16/2015 13:00 to 12:10 77.43 77.69 77.20 77.35 77.39 76.70
10/16/2015 12:00 to 11:10 77.48 77.89 77.39 78.02 78.39 76.81
10/16/2015 11:00 to 10:10 77.05 76.79 76.57 76.31 76.87 76.20
10/16/2015 10:00 to 9:10 76.46 76.42 76.40 76.09 75.34 74.10
10/16/2015 09:00 to 8:10 75.68 76.33 76.50 76.74 75.49 76.14
10/16/2015 08:00 to 7:10 74.62 76.18 74.79 74.71 74.60 74.45
10/16/2015 07:00 to 6:10 73.86 73.24 73.63 73.06 72.00 72.91
10/16/2015 06:00 to 5:10 72.43 73.71 73.56 74.66 73.32 73.37
10/16/2015 05:00 to 4:10 73.41 73.80 74.32 73.26 73.28 74.12
10/16/2015 04:00 to 3:10 73.88 74.38 74.40 73.82 75.21 74.01
10/16/2015 03:00 to 2:10 75.23 74.64 73.37 72.13 71.96 72.56
10/16/2015 02:00 to 1:10 72.85 73.63 73.60 72.74 73.11 74.38
10/16/2015 01:00 to 0:10 74.53 76.40 74.51 72.35 72.80 76.18